Terug naar catalogus

STARLINK-36505

ActiefCommunicatieVLEO
NORAD 67463·PAYLOAD·🇺🇸 United States

Gelanceerd Jan 14, 2026 vanaf Cape Canaveral Space Force Station

Loading…

Volgende Passages (komende 24 uur)

TLE

VersSource: CelesTrak SupGP

Epoch: Sep 14, 2026, 21:20 UTC

1 67463C 26008U   26257.88937500  .00023618  00000+0  85533-3 0  2577
2 67463  42.9993 216.6208 0001129 260.5927 290.6420 15.27571113    10

Volg STARLINK-36505 in realtime met AllMySat

Download on the App Store